www.pogodaiklimat.ru

Погода и климат >> Архив погоды >> Россия >> город Санкт-Петербург >> Кронштадт


ПОГОДА в Кронштадте

  • Прогноз погоды в Кронштадте
  • Монитор погоды в Кронштадте

АРХИВ ПОГОДЫ в Кронштадте

Время (UTC), дата Ветер
(напр.,м/с)
 
Видим.   Явления Облачность Т
(С)
Тd
(С)
f
(%)
Тe
(С)
Тes
(С)
Комфортность P
(гПа)
Po
(гПа)
Тmin
(С)
Tmax
(С)
R
(мм)
R24
(мм)
S
(см)
18 13.07 штиль 0 20 км 8/3 300 м
[Sc Ac trans Ci fib]
+14.4 +10.2 76 +14 +14 1008.8 1008.2 +17.3
21 13.07 СВ 5 н/о н/о +13.6 +10.1 79 +12 +12 1009.9 1009.3
00 14.07 н/о н/о +11.8 +8.5 80 1010.4 1009.8
03 14.07 н/о н/о +12.4 +7.6 73 1010.7 1010.1 +11.7
06 14.07 СВ 1 20 км 3/1 600 м
[Cu med, cong Ci fib]
+13.9 +8.8 71 +14 +21 1010.2 1009.6 +11.6
09 14.07 З 1 20 км 5/3 600 м
[Cu med, cong Ac trans Ci fib]
+15.3 +8.2 63 +16 +25 1011.0 1010.4
12 14.07 ЮЗ 3 20 км 4/3 600 м
[Cu med, cong Ac trans Ci fib]
+16.6 +8.9 60 +16 +23 1010.6 1010.0
15 14.07 С 2 20 км 8/4 300 м
[Cb calv Ac trans Ci fib]
+16.3 +8.9 62 +16 +18 1011.2 1010.6
18 14.07 С 1 20 км 9/6 600 м
[Sc diur, vesp Ac trans Ci fib]
+15.5 +9.8 69 +16 +16 1011.3 1010.7 +17.5
21 14.07
{10}
н/о н/о +14.0 +8.7 70 1011.8 1011.1
00 15.07 н/о н/о +14.0 +10.7 80 1011.5 1010.9
03 15.07 н/о н/о +13.4 +9.9 79 1011.4 1010.8 +13.1
06 15.07 Ю 1-13
{13}
10 км 8/3 600 м
[Cu hum Ac trans Ci fib]
+14.8 +10.6 76 +15 +19 1011.0 1010.2 +12.5
09 15.07 ЮЗ 3 10 км гроза без осадков {ливн. осадки} 10/10 300 м
[Cb cap]
+14.8 +8.5 66 +14 +14 1011.1 1010.5
12 15.07 З 1-10
{10}
20 км {гроза, ливн. осадки} 9/4 300 м
[Cb calv Ac trans Ci fib]
+17.1 +9.0 59 +18 +23 1010.7 1010.1
15 15.07 ЮЗ 1 10 км 6/3 300 м
[Cb calv Ac trans]
+18.3 +8.9 54 +20 +22 1010.4 1009.8
18 15.07 Ю 1 10 км 4/0
[Ac trans Ci fib]
+17.1 +10.4 65 +18 +18 1010.0 1009.4 +18.6 0.0
21 15.07 н/о н/о +14.8 +11.0 78 1010.4 1009.8
00 16.07 н/о н/о +13.9 +10.9 82 1010.4 1009.8
03 16.07 н/о н/о +14.1 +11.6 85 1010.3 1009.7 +13.4
06 16.07 В 1
{13}
20 км 3/1 600 м
[Cu hum Ac trans]
+16.4 +11.6 73 +17 +23 1010.0 1009.4 +13.5
09 16.07 СВ 3 20 км 3/3 300 м
[Cu med, cong]
+19.3 +8.8 51 +20 +28 1009.9 1009.3
12 16.07 В 3 20 км 4/4 300 м
[Cu med, cong]
+21.0 +9.4 47 +23 +29 комфорт 1009.2 1008.6
15 16.07 В 3 20 км 6/3 300 м
[Cu med, cong Ci fib]
+20.9 +10.0 50 +23 +25 комфорт 1009.1 1008.5
18 16.07 В 5
{10}
20 км 8/3 300 м
[Cb calv Ac trans Ci fib]
+19.1 +10.1 56 +20 +20 1009.7 1009.1 +21.7
21 16.07 н/о н/о +18.2 +10.7 62 1009.5 1008.9
00 17.07 В 5 н/о н/о +15.9 +12.1 78 +15 +15 1009.2 1008.6
03 17.07 СВ 5 н/о н/о +15.5 +12.6 83 +14 +14 1009.1 1008.5 +15.2
06 17.07 СВ 3 20 км 10/1 600 м
[Cu hum Ac und]
+16.7 +13.1 79 +16 +18 1009.1 1008.5 +15.0
09 17.07 СВ 3 4000 м слаб. ливневой дождь 10/10 300 м
[Cb calv]
+17.6 +13.0 74 +18 +18 1009.1 1008.5
12 17.07 СВ 5 20 км {ливн. осадки} 10/4 300 м
[Sc Ac und]
+18.3 +11.8 66 +18 +19 1008.7 1008.1
15 17.07 СВ 3
{10}
10 км слаб. ливневой дождь 10/6 300 м
[Cb calv Ac und]
+16.5 +13.1 80 +16 +17 1008.4 1007.8
18 17.07 СВ 3-10
{10}
20 км {ливн. осадки} 9/3 600 м
[Sc diur, vesp Ac As]
+16.8 +14.2 85 +17 +17 1008.6 1008.0 +18.5 1
21 17.07 СВ 5 н/о н/о +15.8 +14.5 92 +15 +15 1008.2 1007.6
00 18.07 н/о н/о +16.4 +15.4 94 1008.2 1007.6
03 18.07 н/о н/о +16.3 +15.2 93 1007.7 1007.1 +15.6
06 18.07 СВ 2-10
{10}
10 км 10/8 300 м
[Sc Ac trans]
+17.2 +15.1 87 +18 +18 1007.0 1006.4 +15.2
09 18.07
{12}
10 км 9/4 300 м
[Cb calv Ac trans]
+18.2 +14.8 81 1007.0 1006.4
12 18.07 С 3 10 км слаб. ливневой дождь 10/10 300 м
[Cb calv]
+17.5 +14.6 83 +18 +18 1006.5 1005.9
15 18.07 С 3
{10}
10 км ливневой дождь 10/10 300 м
[Cb calv]
+16.1 +15.1 94 +16 +16 1006.1 1005.5
18 18.07 С 3
{10}
4000 м слаб. ливневой дождь 10/10 300 м
[Cb calv]
+16.0 +15.1 94 +15 +15 1005.2 1004.6 +19.0 7
21 18.07 н/о н/о +16.0 +15.2 95 1005.2 1004.6
00 19.07 н/о н/о +15.9 +15.1 95 1005.3 1004.7
03 19.07 н/о н/о +15.7 +15.4 98 1005.3 1004.7 +15.6
06 19.07 С 2 10 км 10/10 300 м
[St]
+16.1 +15.2 94 +16 +16 1005.4 1004.8 +15.6 2
09 19.07 С 3 4000 м слаб. дождь 10/10 300 м
[Frnb Ns]
+15.6 +15.1 97 +15 +15 1005.2 1004.6
12 19.07 СВ 1
{10}
10 км {ливн. осадки, дождь} 10/5 300 м
[Sc Ac und]
+17.1 +16.1 94 +18 +20 1005.9 1005.3
15 19.07 С 2
{10}
2000 м ливневой дождь 10/10 300 м
[Cb calv]
+17.0 +16.2 95 +17 +17 1006.4 1005.8
18 19.07 СВ 2 10 км {ливн. осадки} 10/10 360 м
[Frnb]
+16.3 +15.4 94 +16 +16 1007.0 1006.4 +17.7 8
21 19.07
{10}
н/о н/о +15.9 +15.6 98 1007.8 1007.2
00 20.07
{10}
н/о н/о +15.7 +15.4 98 1008.0 1007.4
03 20.07
{11}
н/о н/о +15.6 +15.3 98 1009.0 1008.3 +15.5
06 20.07 С 1
{26}
20 км 10/8 300 м
[Cb calv Ac trans]
+16.6 +15.8 95 +17 +18 1009.9 1009.1 +14.7 11
09 20.07 СЗ 1 10 км 10/4 300 м
[Cu hum Ac As]
+18.2 +15.8 86 +20 +22 1011.6 1011.0
12 20.07 З 4 4000 м 6/6 300 м
[]
+19.1 +16.4 84 +21 +24 комфорт 1012.7 1012.1

 

Местоположение метеостанции Кронштадт (город Санкт-Петербург, Россия): широта 59.98 долгота 29.76 высота над уровнем моря 5 м.

В архиве по умолчанию представлена погода в Кронштадте за последнюю неделю. Архивные данные за месяц целиком и за предыдущие месяцы, начиная с января 2011 года, Вы можете получить, выбрав интересующий диапазон дат из раскрывающегося списка и нажав кнопку "Ввод!".


*Определитесь, кто Вы:
робот инопланетянин человек

Внимание! Время в таблицах - всемирное. Для получения местного времени необходимо прибавить поправку, которая равна 3 ч.

Смотрите также архив погоды в соседних городах и на ближайших метеорологических станциях:

Погода в Ломоносове (город Санкт-Петербург, Россия) (7 км)
Погода в Лисьем Носу (город Санкт-Петербург, Россия) (13 км)
Погода в Санкт-Петербурге (город Санкт-Петербург, Россия) (30 км)
Погода в Шепелево (Ленинградская область, Россия) (30 км)
Погода в Рощино (Ленинградская область, Россия) (31 км)
Погода в Сосновом Бору (Ленинградская область, Россия) (37 км)
Погода в Озерках (Ленинградская область, Россия) (49 км)
Погода в Воейково (город Санкт-Петербург, Россия) (52 км)
Погода в Волосово (Ленинградская область, Россия) (63 км)
Погода в Шлиссельбурге (Ленинградская область, Россия) (69 км)

Пояснения к столбцам:

Ветер - указаны скорость ветра в м/с - средняя за 10 мин, порывы в срок и между сроками (в фигурных скобках) и направление, откуда дует ветер: С - северный, СВ - северо-восточный, В - восточный, ЮВ - юго-восточный, Ю - южный, ЮЗ - юго-западный, З - западный, СЗ - северо-западный.
Видимость - горизонтальная дальность видимости в метрах или километрах. При видимости от 1 до 10 км при отсутствии осадков обычно наблюдается дымка, при ухудшении видимости до 1 км и менее - туман. В сухую погоду видимость может ухудшаться дымом, пылью или мглою.
Явления - указаны атмосферные явления, наблюдавшиеся в срок или в последний час перед сроком; фигурными скобками обозначены явления, наблюдавшиеся между сроками (за 1-3 часа до срока); квадратными скобками обозначены град или гололедные отложения с указанием их диаметра в мм.
Облачность - указаны через наклонную черту общая и нижняя облачность в баллах и высота нижней границы облаков в метрах; квадратными скобками обозначены формы облаков: Ci - перистые, Cs - перисто-слоистые, Cc - перисто-кучевые, Ac - высококучевые, As - высокослоистые, Sc - слоисто-кучевые, Ns - слоисто-дождевые, Cu - кучевые, Cb - кучево-дождевые. Подробнее классификацию облаков см. в Атласе облаков (PDF).
T - Температура воздуха - температура, измеренная на высоте 2 м над землей.
Td - Температура точки росы - температура, при понижении до которой содержащийся в воздухе водяной пар достигнет насыщения.
f - Относительная влажность воздуха - влажноcть воздуха, измеренная на высоте 2 м над землей.
Te - Эффективная температура - температура, которую ощущает одетый по сезону человек в тени. Характеристика душности погоды. При расчете учитывается влияние влажности воздуха и скорости ветра на теплоощущения человека.
Tes - Эффективная температура на солнце - температура, которую ощущает человек, с поправкой на солнечный нагрев. Характеристика знойности погоды. Зависит от высоты солнца над горизонтом, облачности и скорости ветра. Ночью, в пасмурную погоду, а также при ветре 12 м/с и более поправка равна нулю.
P - Атмосферное давление - приведенное к уровню моря атмосферное давление.
Po - Атмосферное давление - измеренное на уровне метеостанции атмосферное давление.
Tmin - Минимальная температура - минимум температуры воздуха на высоте 2 м над землей.
Tmax - Максимальная температура - максимум температуры воздуха на высоте 2 м над землей.
R - Количество осадков - Количество выпавших осадков за период времени, мм. При наведении курсора мыши на число - период времени, за который выпало указанное количество осадков.
R24 - Количество осадков - Количество выпавших осадков за 24 часа, мм.
S - Снежный покров - Высота снежного покрова, см. При наведении курсора мыши на число - состояние снежного покрова и степень покрытия местности в баллах.